User: anonymous   Login
Location: *
(44.1392°N, 4.8079°E)
Time: 19:28:20
(UTC+00:00)
Language:

FENGYUN 1C DEB - Orbit

View from above orbital plane
View from above orbital plane
View from above satellite
View from above satellite

Ground track
Ground track

The orbit data is extracted from the following two-line orbital elements,

1 29909U 99025HF  22021.17440611  .00001535  00000-0  60921-3 0  9990
2 29909  98.6894  96.8363 0059505 285.3256 127.1742 14.29294011779634
Epoch (UTC): 21 January 2022 04:11:08
Eccentricity: 0.0059505
inclination: 98.6894°
perigee height: 751 km
apogee height: 837 km
right ascension of ascending node: 96.8363°
argument of perigee: 285.3256°
revolutions per day: 14.29294011
mean anomaly at epoch: 127.1742°
orbit number at epoch: 77963

The dashed part of the orbit path shows where the satellite is in the earth's shadow,  

DLR